User: anonymous   Login
Location: Unspecified
(0.0000°N, 0.0000°E)
Time: 00:00:22
(UTC+00:00)
Language:

N. Korean satellite - Orbit

View from above orbital plane
View from above orbital plane
View from above satellite
View from above satellite

Ground track
Ground track

The orbit data is extracted from the following two-line orbital elements,

1 39026U 12072A   21023.54078334  .00001643  00000-0  59007-4 0  9993
2 39026  97.2358  20.0877 0036310 178.0228 182.1163 15.29476548450878
Epoch (UTC): 23 January 2021 12:58:43
Eccentricity: 0.0036310
inclination: 97.2358°
perigee height: 452 km
apogee height: 502 km
right ascension of ascending node: 20.0877°
argument of perigee: 178.0228°
revolutions per day: 15.29476548
mean anomaly at epoch: 182.1163°
orbit number at epoch: 45087

The dashed part of the orbit path shows where the satellite is in the earth's shadow,  

DLR